[Iaude] MPEC M09: 2024 LW5 [a=2.58,e=0.58,i=3.1,H=25.6]

mpec at cfa.harvard.edu mpec at cfa.harvard.edu
Mon Jun 17 06:26:20 EDT 2024


M.P.E.C. 2024-M09                                 Issued 2024 June 17, 10:24 UT

     The Minor Planet Electronic Circulars contain information on unusual
         minor planets, routine data on comets and natural satellites,
         and occasional editorial announcements.  They are published
    on behalf of Division F of the International Astronomical Union by the
          Minor Planet Center, Smithsonian Astrophysical Observatory,
                          Cambridge, MA 02138, U.S.A.
			  
             Prepared using the Tamkin Foundation Computer Network

                              MPC at CFA.HARVARD.EDU
            URL https://www.minorplanetcenter.net/    ISSN 1523-6714

                                    2024 LW5                                    


Observations:
     K24L05W* C2024 06 15.40095116 31 43.500-16 07 08.35         20.80wXEM009F52
     K24L05W  C2024 06 15.42446516 31 58.596-16 08 53.41         20.71wXEM009F52
     K24L05W  C2024 06 15.43622016 32 06.165-16 09 46.06         20.59wXEM009F52
     K24L05W  C2024 06 15.53188916 33 08.397-16 16 46.32         20.44GVEM009F51
     K24L05W  C2024 06 15.53270616 33 08.943-16 16 50.12         20.86GVEM009F51
     K24L05W KC2024 06 16.19183116 40 52.42 -17 06 23.6          21.4 GVEM009H21
     K24L05W KC2024 06 16.19467516 40 54.28 -17 06 36.3          21.1 GVEM009H21
     K24L05W KC2024 06 16.19752016 40 56.17 -17 06 49.0          21.2 GVEM009H21
     K24L05W KC2024 06 16.20036516 40 58.06 -17 07 01.7          21.1 GVEM009H21
     K24L05W KC2024 06 16.21853116 41 12.10 -17 08 16.4          21.3 GXEM009858
     K24L05W KC2024 06 16.22582616 41 16.94 -17 08 48.6          21.0 GXEM009858
     K24L05W KC2024 06 16.23213116 41 21.08 -17 09 16.2          21.1 GXEM009858
     K24L05W 1C2024 06 16.36960716 42 57.175-17 18 58.51         20.45GVEM009T12
     K24L05W 1C2024 06 16.37083716 42 57.974-17 19 04.06         20.13GVEM009T12
     K24L05W 1C2024 06 16.37205716 42 58.750-17 19 09.32         20.09GVEM009T12
     K24L05W KB2024 06 16.97492 16 49 59.23 -18 03 14.4          20.5 GVEM009204
     K24L05W |C2024 06 17.06143016 51 05.460-18 07 12.50         21.2 GVEM009807
     K24L05W |C2024 06 17.06694016 51 09.150-18 07 37.80         21.4 GVEM009807
     K24L05W |C2024 06 17.07247016 51 12.810-18 08 01.80         21.3 GVEM009807

Observer details:
204 Schiaparelli Observatory.  Observer L. Buzzi.  0.84-m f/3.5 reflector +
    CMO.
807 Cerro Tololo Observatory, La Serena.  Observers T. Linder, R. Holmes.
    0.61-m f/6.8 Ritchey-Chretien + CCD.
858 Tebbutt Observatory, Edgewood.  Observer F. B. Zoltowski.  0.51-m f/8.1
    Schmidt-Cassegrain + CCD.
F51 Pan-STARRS 1, Haleakala.  Observers J. Herman, T. Lowe, P. Minguez, A.
    Schultz, I. Smith.  Measurers K. Chambers, T. de Boer, J. Fairlamb, H.
    Gao, M. Huber, C.-C. Lin, E. Magnier, Y. Ramanjooloo, R. Wainscoat, R.
    Weryk.  1.8-m Ritchey-Chretien + CCD.
F52 Pan-STARRS 2, Haleakala.  Observers J. Herman, T. Lowe, P. Minguez, A.
    Schultz, I. Smith.  Measurers K. Chambers, T. de Boer, J. Fairlamb, H.
    Gao, M. Huber, C.-C. Lin, E. Magnier, Y. Ramanjooloo, R. Wainscoat, R.
    Weryk.  1.8-m Ritchey-Chretien + CCD.
H21 Astronomical Research Observatory, Westfield.  Observer R. Holmes.
    Measurers T. Linder, R. Holmes, L. Horn.  0.81-m f/4.0 astrograph + CCD.
T12 University of Hawaii 88-inch telescope, Maunakea.  Observers J. Fairlamb,
    L. Benavitz, K. Toguchi-Tani.  Measurers R. Weryk, J. Fairlamb, Y.
    Ramanjooloo, R. Wainscoat.  2.24-m f/10.1 reflector + CCD.

Orbital elements:
2024 LW5                                                 Earth MOID = 0.0727 AU
Epoch 2024 Mar. 31.0 TT = JDT 2460400.5                 Veres                   
M 343.11760              (2000.0)            P               Q                  
n   0.23748836     Peri.  166.66885     -0.21522358     +0.97508427             
a   2.5825050      Node    90.88294     -0.90083934     -0.17698121             
e   0.5791054      Incl.    3.08172     -0.37705079     -0.13374722             
P   4.15           H   25.66          G   0.15           U   8                  
Residuals in seconds of arc
240615 F52  0.0   0.2-    240616 H21  0.7-  0.1-    240616 T12  0.2-  0.0
240615 F52  0.0   0.2+    240616 H21  0.4-  0.2-    240616 204  0.1-  0.7+
240615 F52  0.1+  0.1-    240616 858  0.1-  0.6-    240617 807  0.0   0.5+
240615 F51  0.3-  0.3+    240616 858  0.6+  0.4-    240617 807  0.2+  0.7-
240615 F51  0.2-  0.1+    240616 858  0.6+  0.1-    240617 807  0.3-  0.5-
240616 H21  0.7-  0.2+    240616 T12  0.2+  0.0
240616 H21  0.9-  0.1+    240616 T12  0.1+  0.1-

Ephemeris:
2024 LW5                 a,e,i = 2.58, 0.58, 3                   q = 1.0870
Date    TT    R. A. (2000) Decl.     Delta      r    Elong.  Phase     V
2024 05 18    13 35 18.7 +06 17 04   0.1428  1.1246   139.9    35.4    23.1
...
2024 06 02    14 32 13.2 -00 57 14   0.09596 1.0917   142.3    34.6    22.2
...
2024 06 10    15 34 22.0 -09 14 17   0.08004 1.0869   152.6    25.5    21.5
...
2024 06 16    16 38 37.9 -16 50 36   0.07618 1.0895   164.6    14.4    21.1
2024 06 17    16 50 17.6 -18 03 17   0.07638 1.0904   166.7    12.4    21.0
2024 06 18    17 02 03.2 -19 12 58   0.07682 1.0915   168.8    10.4    20.9
...
2024 06 24    18 10 29.3 -24 41 44   0.08445 1.1008   178.7     1.2    20.7
...
2024 07 02    19 21 33.5 -27 58 44   0.1055  1.1209   170.3     8.8    21.6
...
2024 07 17    20 28 53.0 -28 34 39   0.1662  1.1793   167.8    10.5    22.8

M. P. C. Staff               (C) Copyright 2024 MPC           M.P.E.C. 2024-M09





More information about the Iaude mailing list